RH
89 86 94 99 100 97 91 76 65 54 49 52 92 89 90 88 85 94 78 86 82 76 57 55 49 48 65 84 72 61 66 66 68 75 71 74 90 98 81 75 66 80 79 79 66 72 68
99 99 100 99 99 100 96 86 72 61 50 52 79 97 88 91 87 91 95 83 83 88 71 54 46 45 80 88 60 59 65 69 69 69 84 82 87 87 87 68 69 60 68 63 61 81 67
93 97 99 98 100 100 100 95 77 68 54 51 84 92 93 95 95 95 97 74 87 89 76 52 53 57 74 67 61 58 64 76 74 62 85 94 85 99 100 70 52 55 66 62 85 74 70
90 94 99 99 97 100 100 99 81 75 57 52 64 93 96 97 91 94 94 69 80 80 71 47 54 65 75 60 54 60 64 78 79 66 64 91 100 95 96 85 62 59 66 82 83 76 72
83 91 95 100 97 99 100 100 86 80 59 51 49 83 98 98 97 100 76 85 74 62 46 43 54 81 69 60 63 56 67 72 81 70 75 89 97 92 94 90 78 74 80 74 89 72 77
94 87 92 94 98 94 99 100 95 82 61 50 42 82 98 96 98 98 89 81 62 59 75 74 76 74 60 62 60 64 69 71 82 78 76 92 98 96 93 94 81 82 78 66 75 80 73
100 92 85 97 99 93 100 100 98 84 59 48 42 86 99 98 97 98 80 84 87 82 76 72 66 61 58 60 48 68 66 70 80 93 96 99 99 100 94 89 79 59 62 62 61 69 78
100 100 87 93 98 98 96 100 100 85 56 46 43 75 98 96 97 98 88 83 75 76 74 65 67 68 62 63 68 74 60 72 76 99 98 98 99 83 73 68 68 57 63 63 59 60 60
99 100 99 89 93 99 100 100 100 84 53 43 44 54 93 92 82 81 82 82 79 55 77 70 66 67 65 65 78 85 75 76 81 100 100 91 96 77 76 68 58 64 61 80 62 75 75
95 98 100 99 77 99 100 100 100 82 51 43 40 42 64 90 90 93 84 84 64 57 98 82 67 71 72 89 87 88 85 90 80 99 96 98 81 78 77 67 61 67 58 75 71 72 95
96 99 100 100 80 100 100 100 100 75 48 44 36 39 60 97 91 85 86 71 56 74 91 78 66 62 66 77 83 76 86 87 92 91 94 99 94 89 85 69 61 63 59 72 78 67 73
95 97 98 100 85 99 97 100 100 68 45 41 36 49 73 95 94 89 76 63 80 89 93 82 73 63 67 82 88 91 92 92 90 84 79 94 88 87 86 72 68 72 61 58 65 67 79
89 94 100 100 94 89 98 100 98 61 45 36 45 66 90 92 85 74 83 90 88 91 70 74 76 58 60 85 88 83 80 93 94 87 98 83 90 79 75 67 73 80 66 95 90 87 79
92 100 91 97 90 81 100 100 93 53 44 36 66 78 95 93 83 84 95 92 86 72 86 68 67 60 75 63 62 79 84 85 71 84 89 93 83 91 77 82 78 78 57 82 83 90 68
98 97 80 100 82 86 100 100 83 48 39 50 76 81 82 74 74 87 90 94 90 88 78 83 74 76 72 63 64 55 67 83 79 71 85 95 93 79 75 81 73 64 78 48 73 56 80
100 96 99 100 83 93 100 100 72 46 36 64 83 87 79 73 77 86 94 82 88 81 70 66 82 75 63 60 61 63 61 59 74 67 68 70 98 81 80 70 60 61 55 65 86 68 58
98 90 100 100 89 99 100 99 58 45 38 82 88 94 82 77 80 93 95 78 70 60 62 63 71 70 52 59 56 57 71 65 64 68 67 63 75 94 78 87 80 72 70 61 60 69 71
98 86 100 99 92 100 100 94 50 41 49 83 85 100 84 80 93 90 92 67 58 63 61 66 65 66 54 52 51 55 68 73 65 64 66 57 81 86 80 65 64 65 74 69 86 70 73
99 82 91 100 94 100 100 86 49 38 46 84 90 98 88 92 97 95 69 66 61 68 68 65 63 50 46 53 62 55 73 69 65 62 70 60 85 97 85 72 65 73 69 69 68 76 79
100 93 100 100 100 100 100 74 49 37 55 79 77 98 100 97 92 92 76 78 75 60 58 52 52 46 49 51 50 59 73 66 65 61 57 57 69 72 84 70 74 80 66 64 74 90 77
100 89 98 100 97 100 99 63 48 36 62 80 76 88 81 98 94 93 65 69 74 71 60 53 54 52 51 55 56 58 69 72 64 62 56 64 81 76 61 56 77 76 66 66 83 72 80
98 96 98 100 96 100 88 56 48 38 65 79 62 80 78 80 71 89 69 67 69 67 62 61 63 50 55 68 65 66 66 69 70 67 59 61 87 81 78 60 60 68 67 67 68 66 72
95 100 96 87 100 100 70 52 49 40 45 73 55 54 57 69 77 80 78 65 58 68 66 66 62 60 72 70 61 57 54 49 49 68 68 69 76 83 90 56 58 66 57 64 63 58 60
99 87 100 82 100 100 67 52 46 37 36 43 43 50 51 71 76 72 62 55 65 68 72 69 65 65 76 62 60 52 48 45 45 53 48 62 66 76 89 69 88 53 39 41 56 54 54
99 93 99 100 100 98 75 71 43 36 33 36 34 39 44 65 64 64 64 73 66 66 69 77 78 74 66 61 68 69 71 59 54 53 59 54 64 75 84 85 65 48 46 48 48 52 50
88 91 97 100 99 98 83 58 40 37 33 34 28 38 45 58 62 57 65 63 80 81 73 76 74 71 69 78 70 74 82 68 74 70 58 57 64 78 86 86 82 50 49 45 46 63 53
91 94 99 95 100 96 86 52 44 35 27 34 26 36 40 53 60 56 63 67 55 69 86 75 66 75 73 85 79 80 67 49 69 71 81 80 77 86 83 92 79 56 48 45 54 52 47
95 92 87 100 100 94 82 68 64 32 30 34 28 36 34 61 70 54 52 55 56 55 85 69 75 77 86 81 76 78 71 61 56 48 70 74 84 85 85 86 90 47 44 47 46 48 48
93 96 86 100 100 89 82 88 94 43 32 35 27 46 34 41 78 64 64 62 60 59 66 80 87 94 94 91 89 86 81 76 63 64 54 60 58 66 65 69 47 44 40 40 41 42 42
Wind_Speed
24 25 25 28 26 21 21 21 20 19 21 21 16 14 17 19 16 17 12 8 10 9 9 7 5 4 3 3 5 5 10 8 12 16 15 15 20 10 10 12 11 11 8 19 8 7 3
30 25 26 26 30 26 22 20 20 19 21 21 19 16 15 17 17 16 15 7 10 9 8 6 4 3 5 4 4 10 8 7 11 9 14 15 12 13 11 8 13 17 17 18 17 9 1
33 31 25 28 28 32 24 21 20 19 21 21 18 17 14 16 17 14 17 9 10 8 8 6 4 5 9 11 6 7 10 9 10 7 3 7 16 9 5 8 23 13 12 4 13 12 4
35 33 32 26 27 30 30 22 19 20 21 21 17 17 14 17 13 13 17 7 8 8 8 4 3 5 6 5 1 6 4 6 9 9 7 16 9 7 5 10 5 13 7 10 8 13 2
36 36 34 32 26 29 31 25 19 20 20 21 20 16 14 16 14 14 7 2 3 5 2 1 1 5 5 6 4 9 5 7 9 10 4 12 5 2 5 2 5 7 9 5 9 17 6
37 36 35 33 28 26 24 26 20 19 20 20 20 15 14 14 15 11 3 0 1 3 5 3 4 6 4 2 9 5 4 9 4 4 5 5 4 3 3 1 10 9 8 6 7 11 11
32 37 35 35 31 24 26 26 20 18 19 19 20 14 13 12 11 5 3 2 2 2 2 1 3 6 7 13 9 0 7 6 5 3 2 4 3 6 8 5 10 7 13 16 5 11 11
36 34 36 37 33 25 25 23 20 17 17 18 19 14 11 10 6 2 7 2 2 1 1 3 4 7 4 7 4 4 8 3 0 2 3 4 2 4 5 11 9 13 10 8 6 15 8
40 35 36 35 34 29 29 23 19 16 15 16 18 13 9 5 4 5 7 1 3 4 1 1 3 3 4 4 4 9 7 6 3 3 2 3 4 4 8 5 7 2 8 5 9 6 6
40 35 35 34 34 29 29 20 21 14 14 14 15 11 7 6 4 3 2 5 4 7 3 5 2 3 4 3 3 6 6 3 2 3 3 3 5 6 6 3 5 6 9 11 7 7 2
37 32 34 36 34 30 28 23 21 12 12 12 12 9 2 8 6 2 3 3 7 2 5 5 5 6 4 4 1 7 6 4 7 5 4 6 9 8 9 2 6 2 15 17 11 5 7
37 34 36 36 34 29 31 30 19 11 11 9 8 2 11 10 6 4 4 9 4 4 2 5 4 4 3 4 2 3 2 2 3 4 9 7 7 4 2 4 6 5 5 9 4 2 2
39 34 37 34 33 27 29 28 18 10 9 7 3 10 13 8 4 7 11 4 3 6 4 2 3 4 4 4 3 4 1 2 1 5 6 1 3 4 2 4 9 3 4 2 3 3 4
41 40 37 38 31 28 35 29 16 11 9 5 11 12 11 8 9 14 4 3 7 3 2 2 3 3 3 4 1 5 3 2 3 4 4 5 6 8 8 4 4 7 2 4 4 3 3
38 27 35 32 28 28 36 26 16 12 10 12 17 15 11 11 12 9 3 4 6 5 5 6 2 1 1 2 2 1 2 2 1 2 4 4 3 5 3 3 3 4 3 4 4 3 4
22 28 25 32 27 28 35 24 17 15 14 19 19 13 11 9 9 6 3 3 2 5 6 3 2 5 1 2 1 1 2 3 2 3 5 3 4 4 4 5 2 2 3 4 3 2 3
34 32 22 36 32 26 29 25 20 18 19 23 20 9 11 11 10 3 2 4 3 3 3 3 2 3 3 3 3 1 2 3 2 2 3 2 4 2 2 2 2 4 3 2 2 4 3
30 25 15 31 28 28 33 26 22 22 26 25 15 3 15 14 3 2 1 4 5 6 2 1 2 3 5 4 2 1 3 2 2 1 2 2 4 3 1 2 1 0 1 1 3 3 1
30 25 10 32 26 29 34 26 24 24 29 29 16 7 13 13 3 3 3 3 1 5 5 4 3 0 3 1 3 3 5 3 3 3 2 2 1 3 3 5 3 3 4 3 2 3 2
25 23 16 29 24 31 31 26 25 24 32 21 10 4 5 9 5 2 5 4 3 2 4 1 2 2 1 1 2 3 3 2 3 2 2 2 2 5 5 4 4 4 5 5 4 3 4
24 23 19 34 25 34 30 26 25 25 34 19 7 5 9 5 6 5 2 7 5 4 2 4 1 1 0 3 3 4 4 2 1 3 4 3 2 4 2 3 3 2 3 6 6 7 5
28 18 8 23 28 35 30 27 25 30 37 17 9 5 9 6 8 6 3 5 7 3 4 4 2 2 5 4 2 3 4 3 3 0 1 2 3 4 4 4 4 3 6 7 7 6 8
27 19 29 26 40 36 31 30 29 34 36 11 9 10 7 4 5 5 4 5 8 8 2 3 3 4 5 3 3 1 3 2 4 6 2 3 3 2 4 3 4 6 7 9 4 6 6
23 2 11 23 39 35 32 29 28 30 34 14 19 16 5 3 3 5 5 5 7 5 4 4 8 3 2 3 1 1 2 2 3 6 4 3 5 4 3 2 0 6 0 1 7 7 8
17 10 11 15 32 35 32 29 27 27 34 19 19 13 5 4 5 5 8 7 13 7 3 5 4 5 5 4 3 3 3 2 0 3 4 2 2 1 2 2 6 2 2 1 2 5 4
19 18 20 20 30 35 32 28 25 25 33 25 16 11 5 11 0 2 6 12 4 3 2 3 4 5 4 2 2 3 4 4 2 1 3 1 5 3 2 1 3 2 3 1 2 4 4
17 18 15 14 33 36 31 30 22 23 26 26 16 12 7 9 5 8 4 6 4 4 4 5 4 3 2 2 2 2 1 2 3 5 4 1 1 4 2 2 6 5 2 3 1 5 3
17 21 27 36 34 35 31 30 23 22 23 23 19 14 8 9 10 7 8 6 6 4 4 4 4 1 2 2 2 2 2 3 1 2 4 5 4 3 2 2 5 4 2 1 4 4 7
10 6 27 39 37 35 29 27 25 19 21 19 23 16 11 11 13 13 13 9 7 7 8 4 3 3 2 3 2 2 1 2 2 2 4 0 5 3 6 5 4 5 9 10 13 21 20
Wind_Direction
304 307 314 314 308 311 316 323 321 324 323 323 319 321 315 318 324 317 316 306 285 308 317 315 333 358 24 325 275 326 315 295 293 289 244 229 216 251 211 204 204 205 181 211 194 124 28
299 298 305 312 310 303 307 313 315 322 319 320 320 318 315 318 319 315 314 278 278 295 303 302 321 353 347 281 309 316 352 307 306 313 228 213 218 246 281 211 205 188 200 201 187 135 54
296 296 295 304 305 298 296 304 309 320 316 316 312 321 316 315 317 312 305 263 272 279 290 286 296 335 303 265 286 347 341 299 333 343 221 229 207 236 304 198 201 201 192 193 152 195 195
293 295 295 296 299 303 292 296 306 315 315 313 318 316 319 312 313 307 304 267 259 276 290 280 282 323 280 317 0 336 338 313 338 348 265 297 229 257 265 300 212 179 204 179 156 150 150
287 291 293 291 292 304 287 287 300 311 311 310 314 317 310 308 313 309 318 305 276 294 310 255 123 339 290 301 334 329 324 330 320 1 356 313 124 271 288 285 135 166 154 158 133 142 111
281 284 288 290 289 297 284 283 290 307 307 307 313 315 307 309 307 315 349 180 340 103 65 62 6 310 298 323 314 17 347 326 296 318 348 25 65 29 319 193 169 155 144 206 140 172 146
279 278 281 284 288 290 276 270 281 302 303 305 311 313 306 300 309 319 120 120 59 81 99 354 313 299 307 304 295 109 323 313 276 12 51 276 118 186 216 269 291 114 153 176 132 160 155
287 273 273 279 284 281 277 268 271 293 299 302 311 309 297 310 320 240 158 142 40 91 126 2 4 303 298 348 318 306 341 340 156 23 347 202 114 173 197 239 252 154 143 156 138 154 154
284 283 263 273 277 275 280 260 262 282 292 300 309 306 299 317 78 118 147 249 274 211 142 14 339 317 303 344 348 311 340 334 58 343 209 102 88 223 186 211 181 122 165 138 160 113 343
282 281 264 265 270 267 275 258 255 274 285 298 305 304 301 128 105 124 213 249 227 181 85 347 286 350 357 110 335 356 359 334 7 321 49 67 38 114 121 100 125 160 148 115 152 135 160
273 283 266 255 261 262 277 253 248 263 278 294 299 304 212 144 144 175 234 182 145 155 48 342 316 316 331 41 287 353 356 332 9 12 348 58 37 56 78 107 212 159 149 140 191 145 152
279 279 268 250 251 251 274 243 241 249 270 283 294 246 134 134 152 192 159 132 147 53 41 324 281 281 98 52 73 287 280 4 353 41 56 52 44 44 256 285 88 67 91 130 135 153 59
274 278 268 260 243 252 258 235 231 236 254 260 219 154 134 143 164 145 135 132 82 82 256 334 298 335 118 176 178 227 269 32 9 55 22 164 129 293 12 62 81 78 68 91 33 30 191
286 291 259 251 229 242 248 225 217 219 229 207 158 145 145 164 165 148 149 69 70 105 94 265 251 307 36 348 330 211 183 90 23 59 57 53 5 2 342 19 99 216 70 133 152 165 231
282 288 263 244 220 235 238 209 203 202 200 167 154 136 133 139 152 172 144 65 177 182 178 173 270 188 240 243 218 296 134 114 87 13 104 111 24 310 25 322 6 316 64 190 107 49 75
300 269 267 229 214 228 228 201 195 192 184 166 151 137 144 143 163 164 88 119 162 170 135 196 197 195 94 265 338 338 91 1 79 24 39 131 97 337 341 336 48 92 250 40 13 103 167
295 255 270 231 212 214 215 196 188 182 171 157 143 139 152 154 154 155 170 163 150 194 104 219 357 168 151 208 215 299 55 358 41 325 344 352 94 303 13 349 35 15 31 13 130 137 154
307 260 283 213 210 219 207 188 182 177 167 157 154 109 159 161 145 198 217 170 126 149 162 295 254 258 174 181 213 299 103 82 181 194 353 21 112 128 175 216 204 234 277 113 119 271 26
317 297 230 208 208 209 195 178 181 180 174 154 144 109 164 175 165 223 195 105 178 159 174 199 230 180 18 298 134 78 58 33 155 359 37 341 95 78 22 358 310 218 223 218 112 60 219
324 272 304 220 206 202 185 176 182 180 169 156 146 126 150 207 238 235 154 157 139 163 130 156 318 34 1 123 76 121 114 179 225 5 3 39 87 138 173 205 152 200 207 200 141 120 224
325 267 307 214 211 202 178 177 180 176 169 164 168 165 166 174 229 233 160 159 141 163 227 187 267 242 205 134 127 101 86 96 283 318 1 45 48 68 308 310 81 261 234 211 185 216 175
321 283 312 216 237 198 173 176 179 176 177 182 151 142 167 193 171 161 265 166 152 131 142 183 143 130 36 84 51 107 133 171 189 246 17 25 3 58 321 272 219 273 271 262 253 253 243
310 280 259 258 215 191 172 179 181 181 180 178 175 153 161 150 138 124 202 182 151 120 30 55 95 88 88 117 92 23 10 59 103 149 170 121 125 76 288 330 10 309 241 221 224 238 217
311 323 9 212 209 186 175 180 185 186 186 182 173 160 150 168 127 180 161 149 122 96 153 70 59 73 127 111 81 89 96 79 95 92 110 151 157 163 224 49 12 236 67 134 214 253 247
306 273 316 228 211 184 176 181 184 182 189 189 177 166 158 112 139 87 119 108 102 95 67 107 74 109 139 112 74 68 346 359 231 68 52 164 136 147 141 190 283 329 321 91 101 286 323
293 244 288 221 217 182 178 179 176 184 191 190 177 165 129 122 198 166 118 138 129 133 49 83 125 126 132 99 89 162 196 198 166 88 339 49 98 118 66 107 268 279 270 271 67 290 321
290 267 282 225 209 180 178 177 170 188 192 188 180 169 138 104 46 124 111 156 141 144 134 127 156 119 139 93 151 143 211 149 174 182 203 44 12 160 212 244 284 274 218 263 0 252 272
297 274 232 205 197 179 181 172 166 184 185 184 178 172 160 106 73 111 126 128 131 109 133 157 102 27 72 115 139 221 156 237 64 190 177 166 148 203 131 175 283 202 298 186 241 291 312
315 298 215 200 188 177 175 167 181 170 173 168 167 169 150 106 109 106 100 103 123 125 127 96 106 88 121 116 68 91 48 26 153 251 342 263 181 186 174 212 252 263 244 299 303 292 293